Content
SEND FEEDBACK

Daily
Averages
Monthly
Summary
Mexico

COZUMEL, QUINTANA ROO


Home > North America > Mexico > Quintana Roo
Elevation: 15 feet     Latitude: 20 31N     Longitude: 086 56W

WEATHER
 
SELECT A DAY
Number of Records: 128,602;   Date Range: 1/1/95 - 12/19/14
 
SHARE

PRINT THIS DATA

[ ← Previous Day ]
WEATHER ALMANAC - SEPTEMBER 30, 2013
[ Next Day → ]
[ °C ]   °F
Weather ElementAverageHighLow
Temperature73.1 °F82.4 °F (1:45 pm)62.6 °F (5:40 am)
Dewpoint67.9 °F71.6 °F (8:41 am)60.8 °F (5:40 am)
Humidity84.9 %100 % (7:46 am)62 % (1:45 pm)
Barometer29.91 in29.98 in (9:46 pm)29.86 in (2:53 pm)
Wind Speed2.3 mph6.9 mph (10:43 am)
Weather ElementAverage
Visibility8.1 mi
Wind DirectionENE (83.5 °)

Weather ElementTotal
Precipitation---
Cooling Degree Days7.5 (Base 65)
Growing Degree Days22.5 (Base 50)
Averaged from 23 records on September 30, 2013
WEATHER CONDITIONS BREAKOUT
WIND DIRECTION BREAKOUT
WEATHER BY HOUR - SEPTEMBER 30, 2013
[ °C ]   °F
Local TimeTemperatureDewpointHumidityBarometerVisibilityWind DirectionWind SpeedGust SpeedPrecipitationEventsConditions
1:40 AM66.2 °F64.4 °F94 %29.91 in7.0 miCalmScattered Clouds
2:40 AM66.2 °F64.4 °F94 %29.90 in7.0 miCalmScattered Clouds
3:46 AM64.4 °F62.6 °F94 %29.92 in7.0 miCalmScattered Clouds
4:40 AM64.4 °F62.6 °F94 %29.88 in7.0 miCalmScattered Clouds
5:40 AM62.6 °F60.8 °F94 %29.89 in7.0 miCalmScattered Clouds
6:40 AM62.6 °F60.8 °F94 %29.88 in7.0 miCalmScattered Clouds
7:46 AM68.0 °F68.0 °F100 %29.91 in10.0 miCalmClear
8:41 AM75.2 °F71.6 °F89 %29.92 in10.0 miCalmClear
9:40 AM78.8 °F68.0 °F69 %29.96 in10.0 miCalmClear
10:43 AM80.6 °F71.6 °F74 %29.92 in10.0 miNNW (340°)6.9 mphScattered Clouds
11:40 AM80.6 °F71.6 °F74 %29.92 in10.0 miNorth (350°)6.9 mphScattered Clouds
12:43 PM78.8 °F69.8 °F74 %29.89 in10.0 miNorth (360°)6.9 mphScattered Clouds
1:45 PM82.4 °F68.0 °F62 %29.88 in10.0 miNW (310°)4.6 mphScattered Clouds
2:53 PM82.4 °F71.6 °F70 %29.86 in8.0 miESE (110°)6.9 mphScattered Clouds
3:48 PM82.4 °F69.8 °F66 %29.89 in8.0 miEast (100°)3.5 mphScattered Clouds
4:56 PM80.6 °F71.6 °F74 %29.86 in8.0 miSE (130°)5.8 mphScattered Clouds
5:49 PM78.8 °F71.6 °F78 %29.87 in8.0 miSE (130°)6.9 mphPartly Cloudy
6:49 PM75.2 °F71.6 °F89 %29.87 in7.0 miCalmClear
7:47 PM71.6 °F69.8 °F94 %29.90 in7.0 miCalmPartly Cloudy
8:43 PM69.8 °F68.0 °F94 %29.92 in7.0 miCalmClear
9:46 PM69.8 °F68.0 °F94 %29.98 in7.0 miCalmClear
10:40 PM69.8 °F68.0 °F94 %29.95 in7.0 miCalmClear
11:40 PM69.8 °F68.0 °F94 %29.94 in7.0 miEast (90°)3.5 mphClear
Hourly data recorded from MMCZ, located miles away from Cozumel, Quintana Roo







STORIES FROM OUR PARTNERS